Theta_e
310 310 310 310 310 311 311 311 311 311 312 312 313 313 312 310 308 308 308 308 308 308 308 308 308 308 308 307 307 308 307 307 308 308 307 306 306 306 307 308 308 308 307 306 306 306 306 307 307 308 308 308 308 308 308 309 308 308 310 309 309 310 309 308 308 307 306 306 304 302 302 307 306 304 304 304 304 304 303 304 304 304 305 306 306 306 306 306
310 310 310 310 310 310 311 311 312 313 312 311 312 313 312 311 311 310 310 310 309 308 308 308 308 308 308 308 308 308 308 308 308 307 306 306 306 306 306 307 307 306 306 306 306 307 307 307 308 308 307 308 307 307 308 308 307 309 310 309 310 311 307 305 306 305 305 305 305 302 302 305 306 304 303 304 305 304 303 305 304 304 305 306 306 306 306 306
308 308 309 310 310 311 311 311 312 313 314 312 312 312 312 311 311 311 311 311 309 307 308 308 307 308 308 308 308 308 308 309 308 306 306 306 306 306 306 306 306 306 307 307 307 307 308 307 308 307 308 308 307 307 308 307 308 309 309 310 310 308 305 302 302 303 303 303 304 303 302 302 304 303 303 304 306 304 304 306 306 305 306 307 307 307 306 306
308 308 308 308 309 309 310 311 312 313 314 314 312 312 312 311 311 311 311 311 310 307 307 307 307 308 309 309 308 308 309 310 308 306 306 306 307 306 306 306 307 307 307 307 307 307 307 307 308 307 308 308 306 306 307 306 308 308 308 310 307 304 305 303 301 302 302 302 303 303 301 302 303 302 302 303 305 306 306 307 307 307 308 308 307 307 306 306
309 308 308 308 308 308 309 309 311 312 313 314 314 313 313 312 310 310 310 311 310 308 307 308 308 309 309 309 309 308 308 309 307 306 307 306 307 307 306 307 307 308 307 307 307 307 307 307 308 308 308 308 307 307 307 305 306 307 305 305 303 302 305 303 301 302 302 302 302 302 302 303 303 302 302 302 305 308 308 307 307 307 307 307 307 306 306 306
309 309 308 308 308 308 308 308 309 310 312 314 315 314 313 312 310 310 310 310 311 309 307 308 309 309 309 309 309 308 308 309 307 306 307 306 307 307 307 307 307 308 307 308 307 308 308 308 308 308 308 308 307 306 306 303 304 308 305 301 301 302 304 303 301 302 302 301 302 302 303 302 302 303 302 302 304 307 307 307 306 306 306 306 306 306 306 306
309 309 309 309 308 308 308 308 308 308 309 312 315 315 314 313 311 310 309 309 310 310 308 308 308 308 308 308 308 308 308 308 307 306 306 306 307 307 307 307 307 308 307 308 308 308 308 308 308 308 307 307 306 305 304 302 303 307 306 302 302 301 302 302 301 302 302 301 302 302 302 302 303 304 302 302 305 306 306 307 306 306 306 306 306 306 306 306
309 309 309 309 309 309 309 308 308 308 308 309 312 315 315 314 313 311 309 309 309 310 308 307 308 307 307 308 307 308 308 307 306 306 306 306 307 307 308 308 307 308 308 308 308 308 308 308 308 307 308 307 306 305 303 303 304 306 306 303 302 301 301 302 301 302 301 301 302 301 302 303 303 303 301 303 306 306 306 306 306 306 306 306 306 307 306 306
309 309 310 310 309 309 309 309 309 308 308 308 309 312 315 315 314 313 310 309 309 309 308 307 307 308 308 307 307 309 308 307 306 306 306 306 307 307 307 307 308 308 308 308 308 308 308 308 308 308 308 306 305 305 302 305 307 305 304 303 302 302 301 301 301 301 301 301 301 301 303 304 302 302 303 306 307 306 306 307 306 306 307 307 307 307 307 307
308 309 309 310 310 310 310 310 310 309 308 308 308 309 313 315 314 313 311 310 309 309 308 307 307 307 308 307 308 309 308 306 306 306 306 306 306 307 307 307 308 308 308 308 308 308 308 308 308 308 308 306 305 304 302 304 306 303 302 302 302 302 301 301 301 301 300 300 300 302 304 304 301 301 306 309 307 306 307 307 307 307 307 308 308 308 308 308
306 307 308 308 309 310 310 310 310 310 309 309 308 308 310 313 314 313 312 311 309 309 309 308 306 307 307 306 307 309 307 306 306 306 306 306 306 306 307 307 307 307 308 308 307 308 308 308 307 307 308 306 305 303 302 303 303 302 302 302 301 301 301 301 302 302 301 301 301 301 303 303 300 301 307 309 307 307 307 307 308 307 308 308 309 309 309 309
305 305 306 307 307 309 309 310 310 310 310 309 309 309 308 311 314 313 312 311 310 310 310 308 307 307 307 306 307 307 307 306 306 306 306 306 306 306 306 307 307 307 307 307 307 307 307 308 307 307 307 306 305 304 304 302 302 301 301 304 304 302 304 303 302 302 302 303 302 300 304 305 302 303 307 308 307 307 307 308 308 308 308 309 310 310 310 310
305 305 306 306 307 307 308 309 310 310 311 310 310 309 309 309 313 314 313 311 311 311 311 310 307 306 307 307 307 306 306 306 306 306 306 306 306 306 306 306 307 307 307 307 307 307 307 307 307 307 306 305 304 304 304 302 301 302 302 306 308 308 308 304 302 303 303 304 303 303 307 310 308 307 308 307 307 307 307 307 307 308 309 310 310 310 311 311
305 305 306 306 306 306 307 307 309 310 311 311 311 311 310 309 311 314 313 312 311 311 312 311 308 307 307 307 306 306 306 306 307 307 306 306 307 306 306 306 306 306 307 307 307 307 307 307 306 306 305 304 303 303 305 304 303 305 305 308 310 311 310 304 301 304 305 305 304 305 308 311 311 310 308 307 307 306 306 306 307 308 309 310 311 311 311 311
306 306 306 306 306 306 307 307 307 309 310 311 312 312 312 309 310 313 314 313 312 312 313 311 308 308 308 307 306 306 306 306 307 306 306 306 307 307 306 306 306 306 306 306 306 306 306 306 306 305 304 304 304 305 308 308 306 306 308 311 311 310 310 305 300 302 305 305 304 306 308 310 311 310 308 307 307 305 305 305 307 309 309 310 311 311 312 311
305 306 306 306 306 307 307 307 307 307 310 311 312 312 312 310 310 313 315 314 313 313 312 309 308 308 309 308 307 307 307 306 307 306 306 307 307 308 306 306 306 307 308 307 307 307 307 306 305 304 304 305 306 308 311 311 309 308 309 312 311 309 309 307 302 299 302 303 304 306 307 309 310 308 307 306 306 304 304 305 307 309 310 311 312 311 311 311
304 304 306 306 306 306 307 307 307 307 308 310 312 312 311 311 310 312 314 315 314 312 310 309 308 308 308 308 307 308 307 307 307 307 307 307 307 308 307 307 307 307 309 310 310 310 309 307 306 306 307 307 307 310 312 311 310 309 308 309 308 307 307 307 305 301 301 303 305 306 305 308 309 308 307 306 306 304 304 306 307 309 310 311 311 311 311 311
309 306 305 305 306 306 307 307 307 307 308 309 311 311 311 311 311 313 314 314 312 311 309 308 308 308 309 308 308 308 308 308 307 306 307 306 307 308 308 308 307 307 310 310 310 310 308 307 308 309 310 309 309 311 312 310 310 309 308 308 307 306 305 307 306 303 302 304 305 305 305 307 308 309 309 307 305 304 304 306 307 308 310 311 310 310 311 311
314 312 308 305 305 306 307 307 307 308 308 309 310 311 313 312 313 313 313 313 312 311 311 308 308 310 310 309 308 308 308 308 307 306 307 307 307 308 309 309 308 309 310 311 311 309 308 308 309 311 311 311 311 310 311 310 309 309 308 307 307 307 306 306 305 301 300 304 305 305 306 307 307 307 308 308 306 304 304 305 307 309 310 311 310 310 310 310
315 315 313 309 305 305 307 307 307 308 308 309 310 311 313 313 315 314 312 313 313 312 311 309 309 309 309 309 308 308 308 307 307 306 307 307 307 308 310 310 310 311 311 312 314 309 306 310 313 312 311 309 306 303 304 305 306 308 307 307 308 307 307 307 304 300 299 304 306 305 304 305 306 306 308 308 306 304 305 307 308 310 311 310 310 310 310 310
315 315 316 314 309 305 306 307 307 308 309 309 310 312 312 311 314 315 313 314 313 312 312 311 310 309 308 308 307 307 307 307 308 307 307 307 307 309 310 311 311 311 310 308 311 308 307 312 313 308 305 303 301 299 300 304 306 308 308 308 308 307 307 306 302 300 300 304 306 305 304 306 308 308 309 308 306 306 307 309 311 312 311 310 309 310 309 310
314 314 315 316 313 307 305 306 308 308 309 310 310 311 310 309 312 312 311 313 313 312 312 311 310 309 307 307 306 307 306 307 308 307 307 307 308 309 309 311 312 312 311 308 310 310 311 312 307 300 299 300 300 299 301 305 306 308 308 308 308 306 306 305 300 299 300 304 306 305 305 308 309 308 307 305 305 306 307 308 311 311 311 310 309 309 309 309
312 313 314 315 315 311 305 306 308 308 309 310 310 310 310 310 310 310 311 312 313 311 310 309 308 307 306 306 306 307 306 307 308 307 306 307 307 308 308 311 313 313 313 314 313 312 312 309 302 297 299 301 302 301 302 305 306 308 308 307 307 306 306 306 303 301 301 302 304 305 306 309 309 308 308 305 303 305 306 307 310 310 310 309 309 310 309 309
311 311 313 313 315 314 308 306 307 308 309 309 309 309 309 309 310 310 310 310 311 310 309 309 308 306 306 306 306 307 306 305 306 306 306 307 307 308 308 309 312 312 312 315 316 314 310 303 297 298 300 301 303 303 303 306 307 308 309 308 307 307 305 305 305 303 303 301 300 305 309 312 312 311 311 307 303 305 306 307 310 310 310 310 309 310 310 310
311 311 311 312 314 315 310 306 307 307 308 309 308 308 308 309 309 309 308 310 312 310 308 308 308 307 306 307 307 307 306 305 307 306 306 307 307 309 308 305 308 311 313 314 314 312 307 299 297 300 300 301 303 304 305 306 307 307 307 306 305 306 305 305 305 305 307 305 302 305 308 311 315 314 312 308 306 308 308 308 310 310 309 309 309 310 310 310
310 311 311 311 312 315 312 306 306 307 308 309 308 308 308 308 309 309 309 313 317 314 309 308 309 308 308 307 306 306 307 306 307 306 305 306 307 308 308 306 305 308 311 310 308 308 304 297 298 301 302 304 304 305 304 304 307 306 305 302 302 304 305 305 306 306 307 307 304 304 307 309 314 314 311 307 306 308 308 309 310 310 309 309 309 310 310 310
307 308 310 311 311 314 311 305 304 307 309 309 308 308 308 308 309 309 310 315 318 315 311 308 307 308 308 307 306 306 308 308 307 307 305 306 307 306 308 309 307 306 305 306 307 306 301 300 300 301 303 305 306 306 302 300 306 307 302 300 302 304 305 305 306 307 307 307 305 305 307 307 309 312 310 305 307 309 308 309 310 310 309 309 309 310 310 310
304 305 308 311 311 313 312 307 304 306 308 308 308 308 308 309 309 309 313 318 316 312 310 308 307 307 308 308 306 306 307 307 308 308 306 306 307 306 309 310 310 308 302 305 308 306 300 303 302 301 303 305 305 305 299 299 306 306 299 299 302 302 304 304 306 308 306 306 308 306 306 307 309 314 310 305 308 311 310 310 311 311 311 309 309 310 310 310
301 302 304 309 311 312 313 310 306 305 308 308 308 309 308 309 309 309 314 316 315 312 310 309 308 307 307 308 308 306 305 306 308 308 306 307 306 306 308 307 306 307 303 305 310 305 300 303 302 302 304 304 303 300 297 301 305 303 298 300 302 301 303 304 306 308 305 305 309 306 304 306 309 315 313 307 310 313 312 311 310 311 311 309 310 310 310 311
299 300 301 305 310 311 312 311 307 306 307 308 309 309 308 310 311 312 314 315 314 311 308 309 309 307 308 311 310 307 305 305 305 306 306 307 306 305 305 304 304 308 307 307 308 303 300 301 300 301 303 302 301 298 297 299 301 301 301 304 304 302 303 303 303 305 306 307 308 304 302 305 307 312 314 310 311 313 311 311 310 309 309 309 310 310 310 310
300 300 299 302 307 310 312 311 309 307 305 307 309 308 308 311 311 312 314 313 313 312 310 310 309 308 310 312 311 309 308 306 304 306 307 307 306 305 304 304 305 307 308 308 307 302 301 303 301 300 299 300 301 302 299 298 300 302 304 305 306 305 304 305 304 305 308 309 306 302 301 303 306 310 313 310 309 309 309 310 310 310 310 310 310 310 310 310
300 299 299 300 303 308 311 312 312 308 304 306 308 308 309 311 310 312 316 314 311 313 312 310 309 310 310 310 310 311 311 308 305 306 309 307 307 308 309 309 308 308 308 308 306 304 305 303 300 299 299 299 303 305 303 301 302 303 304 305 307 307 306 306 306 306 307 308 304 302 302 303 307 309 310 310 309 308 307 307 308 309 309 309 309 310 310 310
300 299 299 299 301 305 309 312 313 310 305 305 307 309 310 310 309 312 317 315 310 309 309 309 309 309 308 311 311 307 307 309 307 306 307 305 307 310 311 309 309 309 308 306 305 306 307 303 300 301 302 299 301 305 306 305 304 304 305 306 307 307 306 307 307 305 306 307 302 300 302 304 308 309 309 309 309 308 306 305 305 305 305 307 308 310 310 310
300 300 299 300 300 301 306 310 313 310 305 304 308 310 309 310 311 311 314 315 311 308 307 308 310 310 309 310 308 306 307 309 308 307 307 306 307 309 310 307 307 308 306 305 305 306 307 307 304 302 302 299 299 302 302 304 305 304 303 304 306 307 306 307 307 307 307 307 303 300 303 307 309 309 308 308 307 305 304 304 304 304 304 306 308 310 310 311
300 300 300 300 300 300 303 308 313 310 304 305 309 309 308 310 311 310 313 315 313 311 309 306 309 313 312 308 306 305 307 307 307 308 306 306 308 308 308 309 308 307 306 307 307 304 304 305 302 298 298 297 299 300 297 301 306 304 301 303 306 306 307 307 305 305 306 305 305 304 305 308 309 309 309 307 306 304 303 303 302 303 304 305 306 309 310 311
299 300 301 301 300 301 302 305 311 310 305 306 309 307 309 312 311 310 311 311 310 311 312 310 311 313 312 309 308 306 305 305 307 309 306 305 308 307 308 310 308 307 308 308 307 305 304 305 299 296 298 296 297 299 296 300 305 303 303 305 304 301 305 308 302 300 302 305 307 306 307 308 308 309 310 309 309 308 306 305 302 302 304 304 306 308 309 311
299 300 302 302 302 304 304 304 309 310 305 306 308 308 309 310 309 309 311 308 307 309 311 311 311 311 310 310 310 308 307 306 307 309 308 307 308 309 310 310 305 305 307 305 306 307 305 306 301 297 300 297 295 296 297 297 300 303 305 304 301 299 303 306 305 303 304 306 308 306 306 307 307 309 311 310 310 310 310 309 306 304 304 304 306 308 309 311
299 300 302 303 303 305 306 306 308 309 305 305 308 308 306 307 306 306 307 306 307 310 310 309 310 310 309 309 310 308 308 308 308 309 309 308 310 310 312 311 304 301 302 302 304 306 305 307 304 296 299 299 295 298 302 299 297 300 303 300 301 305 306 305 305 306 306 306 308 307 305 305 306 309 310 310 311 310 310 312 311 309 308 306 307 308 308 309
299 301 303 303 302 303 305 307 307 306 306 306 309 308 304 305 306 304 305 306 306 309 309 310 309 308 308 308 309 309 307 308 309 308 307 308 309 309 308 308 305 301 299 300 304 305 304 306 305 298 297 298 298 301 305 304 299 298 300 300 300 304 306 305 305 306 307 307 306 307 306 307 308 309 309 310 310 310 309 311 312 311 309 307 308 308 308 308
299 300 303 303 302 303 304 305 305 306 307 305 307 307 303 304 306 303 304 306 306 307 308 310 309 307 308 307 307 307 306 306 307 307 307 307 308 309 306 306 308 304 300 299 303 304 303 304 306 301 297 299 302 303 304 306 304 301 303 304 302 302 303 304 304 303 305 306 306 306 307 308 310 310 309 309 309 310 309 309 311 310 307 307 307 307 308 308
298 300 303 302 301 301 303 305 304 305 307 304 303 305 303 304 306 304 304 305 306 306 306 307 308 307 309 307 306 307 305 306 306 306 307 306 307 309 306 303 307 306 303 304 304 304 304 303 304 304 302 304 305 301 299 300 301 302 304 305 305 305 304 306 306 303 302 303 304 305 306 309 310 309 309 309 309 309 307 306 308 308 306 307 308 307 308 308
298 301 302 300 299 300 304 306 302 300 305 305 303 304 303 304 306 304 304 305 305 305 304 306 308 308 308 308 308 308 307 306 306 306 307 307 307 308 305 301 302 303 305 309 307 302 302 303 303 305 306 305 300 295 294 295 295 298 301 301 303 305 306 307 308 305 302 301 301 302 304 308 309 310 310 308 307 305 302 302 304 305 306 308 308 309 308 308
297 299 301 300 300 301 303 306 302 301 305 304 302 302 302 303 304 304 305 305 305 306 306 306 307 307 308 307 307 308 307 306 308 308 307 307 307 305 301 300 302 302 304 309 307 301 302 304 304 305 306 302 296 293 293 292 295 300 301 299 301 303 305 306 306 305 304 303 303 303 304 307 310 312 310 305 303 301 301 302 303 304 307 309 308 309 309 308
297 299 301 302 302 302 303 305 306 306 306 303 302 303 302 302 303 304 306 306 306 306 307 308 307 306 306 305 305 307 307 306 309 309 306 306 307 302 299 300 301 303 304 306 306 305 306 308 306 306 309 308 303 301 300 298 298 302 303 300 299 301 302 302 302 303 304 305 307 306 306 308 310 312 309 306 305 305 305 305 304 305 307 308 308 308 308 308
299 301 301 302 302 302 303 305 306 306 305 304 304 304 303 303 303 304 304 305 305 305 306 307 306 305 305 304 304 305 306 306 308 308 305 304 305 300 299 301 300 300 302 302 302 304 307 308 307 309 312 312 310 309 307 305 302 302 302 300 299 300 301 303 304 304 304 306 307 306 306 308 310 311 310 309 308 307 306 307 306 306 307 308 308 308 308 308
300 301 301 301 302 303 303 303 304 305 304 305 305 303 302 303 303 303 303 304 304 303 304 304 304 304 305 304 304 306 306 305 305 306 304 305 306 303 299 300 300 299 300 301 301 303 305 305 306 310 313 312 312 311 308 306 305 305 305 303 301 299 300 303 304 304 305 306 305 305 306 308 309 309 309 308 309 308 308 307 307 307 307 307 307 307 307 307
298 299 300 301 301 302 303 303 303 304 303 303 304 302 301 303 303 302 303 304 304 303 304 304 304 305 305 304 305 306 306 305 304 304 303 304 306 304 299 298 299 299 300 301 302 302 304 305 305 308 309 309 310 311 310 307 307 308 307 305 302 300 299 302 304 305 306 306 305 306 307 307 307 307 307 308 308 308 308 307 307 306 306 306 307 306 306 306
298 299 300 301 300 300 302 302 301 303 303 302 302 302 302 303 303 303 303 303 303 303 304 304 304 306 306 306 306 306 305 305 305 305 304 304 305 305 302 299 298 299 300 299 300 301 303 305 305 306 307 307 306 307 307 305 305 306 305 305 305 301 300 302 304 305 305 306 307 308 308 307 307 306 307 307 308 307 308 307 306 306 306 306 306 306 306 306
297 298 299 300 300 300 300 301 301 302 303 302 302 302 303 304 304 304 303 303 304 304 304 305 305 306 307 307 306 305 305 305 305 305 306 306 305 305 305 304 300 298 299 300 300 301 302 305 305 304 305 306 304 304 304 303 303 304 303 303 304 302 301 302 304 305 305 306 308 308 308 309 307 307 307 307 307 307 307 306 305 305 306 305 305 305 306 306
297 298 298 299 299 300 300 300 301 302 302 302 302 302 302 303 304 304 302 303 304 304 303 304 305 306 307 307 306 305 305 305 306 306 307 307 306 304 305 306 304 300 299 301 301 301 302 306 306 303 304 305 305 305 305 302 301 303 303 302 302 302 302 302 303 304 304 305 306 306 307 307 307 307 307 306 306 306 306 306 306 306 305 305 305 305 306 307
296 296 297 297 298 299 299 300 301 301 301 301 302 302 302 302 303 303 303 303 304 304 304 305 305 305 305 306 305 305 305 305 306 306 306 306 306 305 305 305 305 305 303 303 303 302 302 304 304 303 304 306 306 307 307 304 302 303 303 301 300 302 304 303 302 303 304 305 306 305 305 305 306 306 306 305 305 306 306 306 306 306 306 305 305 305 306 307
295 295 296 296 297 298 299 300 300 301 301 301 302 301 301 302 302 302 303 303 303 304 304 304 304 304 304 304 304 304 304 304 304 304 304 304 304 304 304 303 304 306 307 305 303 302 302 303 304 304 305 306 306 307 306 305 304 305 306 305 302 302 303 303 302 303 304 304 305 306 306 306 307 307 306 306 306 306 306 306 306 306 305 305 304 305 306 306
Wind_Speed
7 7 7 7 7 7 8 9 10 11 11 11 12 12 11 10 9 7 6 5 6 8 10 10 11 10 9 9 9 10 12 12 9 7 6 5 5 6 6 6 6 5 4 4 3 3 5 7 7 5 3 3 3 3 2 2 6 6 2 2 2 1 2 3 5 3 1 1 6 10 13 10 5 9 13 9 12 17 15 20 24 26 29 28 23 20 18 15
9 9 9 8 8 8 8 9 9 10 11 10 11 11 11 9 9 8 8 9 9 10 11 11 12 10 9 8 8 10 12 10 7 5 5 4 4 4 4 4 4 4 4 4 4 4 6 7 6 4 3 3 3 3 3 3 5 3 1 2 2 1 1 0 1 1 2 1 6 8 12 11 4 5 10 8 8 12 13 19 23 27 31 30 28 26 25 23
11 11 11 10 10 10 10 10 9 9 10 10 10 11 10 9 9 8 9 11 13 11 10 10 10 7 6 5 7 9 10 8 5 4 4 3 2 2 2 3 5 5 4 4 4 4 5 5 4 3 4 4 3 4 4 3 3 1 2 3 1 1 1 1 2 2 1 2 4 5 9 11 6 5 8 7 6 8 14 17 15 23 28 25 24 25 25 26
13 13 13 12 12 12 11 11 10 9 9 9 10 10 11 11 10 9 9 12 15 12 7 6 4 3 3 4 6 7 8 6 3 3 3 3 2 2 3 4 6 6 4 4 4 4 4 4 4 4 4 3 3 5 4 2 3 2 2 2 1 1 1 2 1 1 0 0 2 4 6 9 9 8 8 6 6 8 16 19 16 19 22 19 19 20 20 23
14 14 14 14 13 13 13 12 11 10 10 9 9 10 11 11 10 10 10 12 15 13 7 4 2 2 3 4 5 7 7 2 0 3 3 3 2 2 3 4 6 6 4 4 4 3 3 4 4 4 4 3 3 4 2 3 4 3 1 2 2 0 0 3 2 2 2 1 2 4 5 5 8 11 13 10 9 8 8 11 11 12 13 13 14 13 14 17
14 15 14 14 14 14 14 13 12 11 10 10 10 10 10 11 11 11 11 11 13 13 8 5 3 4 5 6 7 7 5 1 2 5 4 3 2 2 3 5 6 6 5 4 4 3 3 4 4 3 3 2 3 2 1 4 4 2 0 1 1 0 1 2 2 1 2 4 4 6 6 5 5 8 12 17 21 19 12 10 9 10 12 14 15 15 16 17
14 15 15 15 15 15 14 14 14 13 11 10 10 10 10 10 11 11 12 11 11 11 9 7 6 6 7 8 7 6 5 4 4 5 3 2 1 2 3 5 6 6 5 5 4 4 5 6 5 4 2 1 2 2 1 2 3 2 0 3 3 1 1 2 3 2 3 5 6 6 6 6 7 6 7 18 29 28 23 22 21 22 22 22 23 23 24 24
14 14 15 15 15 15 15 15 14 14 13 11 10 10 10 10 10 10 11 11 11 11 9 6 5 6 8 6 5 6 5 4 4 5 4 2 0 2 3 4 6 6 6 5 5 5 6 6 6 6 3 1 2 3 1 1 3 2 2 5 4 2 3 4 4 3 4 5 6 6 7 7 9 7 8 21 30 25 22 22 20 20 19 19 19 20 21 23
14 14 14 15 15 15 15 15 15 14 14 13 11 10 10 10 10 10 10 10 10 11 10 7 5 6 8 7 4 4 3 2 3 4 5 4 1 2 3 4 5 6 6 6 7 7 6 5 5 6 3 1 3 3 1 1 2 3 5 7 5 3 3 4 3 3 5 6 5 6 6 7 9 7 11 20 20 15 13 11 11 12 13 14 15 16 17 18
14 14 14 15 15 15 15 15 15 15 15 15 13 11 9 10 10 10 10 10 10 10 11 9 7 6 8 8 5 2 0 2 3 3 5 4 2 1 3 5 5 6 7 7 7 7 6 6 5 6 4 2 4 2 1 2 2 7 10 8 5 4 3 3 4 1 4 6 4 5 6 5 5 3 7 9 7 9 10 9 10 12 13 15 17 18 18 20
14 14 15 15 15 15 15 14 15 15 15 15 14 12 10 9 10 10 9 9 9 9 10 10 8 7 8 7 3 1 1 2 3 4 4 4 4 2 0 2 4 5 6 6 6 6 6 5 4 5 3 3 5 3 3 4 5 12 13 9 5 3 3 1 3 1 0 3 1 4 7 4 4 4 10 10 10 12 11 10 11 14 17 19 19 19 20 21
14 14 15 15 15 16 15 14 14 14 15 15 15 14 11 9 9 10 9 9 9 9 9 10 9 8 8 7 3 1 2 2 3 4 3 4 5 4 2 1 2 4 5 5 5 5 4 2 1 4 2 4 5 3 5 6 7 10 7 3 2 5 2 4 1 3 2 1 5 5 6 3 6 8 11 8 8 9 10 12 15 18 19 17 17 17 17 19
15 15 15 15 16 16 16 15 14 14 14 14 15 15 12 9 9 9 9 9 9 9 9 9 9 9 8 5 3 2 2 2 3 3 2 3 5 4 3 1 1 2 2 4 5 4 3 2 2 5 4 5 4 3 6 5 5 6 2 2 1 4 2 6 4 4 2 1 7 4 5 3 6 11 10 5 7 9 12 16 20 21 16 12 12 11 12 13
16 15 15 16 16 17 16 16 15 14 13 13 14 14 13 10 9 9 9 9 9 10 10 9 7 7 6 4 4 3 1 2 2 2 2 2 3 3 2 0 1 1 1 2 4 3 2 1 2 4 4 4 6 7 6 3 2 2 1 2 0 2 1 5 5 6 1 3 9 4 5 6 4 6 7 10 11 10 14 20 24 19 12 9 8 8 9 9
16 16 16 16 17 17 17 17 16 14 13 13 13 13 13 10 8 8 8 8 9 10 10 9 7 6 5 4 4 3 2 2 2 1 1 1 2 1 1 2 3 3 3 4 4 3 3 4 3 4 5 6 8 5 2 1 1 0 1 2 1 2 0 3 5 7 2 2 7 4 4 7 7 6 6 8 8 8 16 24 23 16 10 8 7 8 9 8
17 16 16 17 17 18 17 17 16 15 14 13 13 12 12 10 8 8 8 8 9 10 10 8 6 5 5 3 3 3 3 3 2 1 1 1 1 0 2 3 4 4 4 5 4 4 3 3 4 6 6 5 4 2 2 2 1 0 2 1 1 1 2 1 3 5 4 3 3 2 4 7 6 3 2 7 8 13 19 23 20 14 10 8 7 9 9 8
18 17 17 17 18 18 18 18 17 16 14 13 12 10 10 10 8 7 8 9 9 9 9 7 6 6 4 2 2 3 4 5 4 3 2 2 1 1 2 2 4 4 4 3 2 2 1 2 4 5 3 1 0 2 2 3 2 1 0 1 0 1 2 2 2 3 5 2 1 1 5 12 11 7 8 11 17 20 17 18 18 14 10 8 8 8 8 8
18 18 17 17 17 18 19 19 19 17 15 13 11 10 9 8 7 8 8 7 8 8 7 4 3 4 2 1 3 4 5 6 6 4 4 3 2 2 2 2 3 4 3 1 1 1 1 2 3 1 1 2 1 3 3 2 1 1 1 1 1 1 2 3 1 3 7 2 3 3 6 14 16 14 16 17 19 17 15 16 17 14 11 8 8 7 6 6
17 18 18 18 17 18 19 20 20 19 16 12 10 10 7 6 6 5 3 5 6 4 3 2 2 3 4 5 7 7 7 6 6 5 5 4 3 3 3 3 4 4 1 2 1 2 2 1 2 2 2 2 0 2 2 2 1 1 1 1 1 2 2 3 1 4 6 4 6 6 8 13 15 14 16 17 14 13 15 16 16 14 10 7 7 6 5 4
17 17 17 18 17 17 18 20 21 21 19 14 13 10 5 5 3 1 3 6 4 2 4 6 7 7 8 8 8 7 7 6 5 5 5 4 4 4 4 3 4 3 1 1 1 2 2 2 3 2 1 1 1 0 1 2 1 2 3 1 1 2 3 1 2 2 3 5 5 4 7 14 16 17 16 14 9 10 14 14 13 12 9 7 5 4 3 3
17 17 16 16 17 17 17 19 19 20 21 18 15 8 6 7 3 2 8 7 3 5 8 10 10 9 8 8 7 7 6 4 4 5 5 4 3 4 5 2 3 3 0 0 1 1 1 3 2 1 2 3 3 1 1 1 2 2 2 0 1 2 3 1 2 1 3 5 3 2 9 15 16 15 13 8 7 9 11 10 9 9 7 5 3 2 3 2
16 17 16 15 15 16 16 16 17 18 17 15 13 10 11 10 6 6 8 6 7 9 8 8 8 7 7 6 5 5 4 3 3 4 5 4 3 3 3 2 2 1 1 0 2 0 1 2 1 3 2 4 4 1 1 1 1 1 2 0 1 1 3 1 2 1 1 3 4 5 10 15 14 12 8 5 6 7 7 8 8 8 7 5 3 1 1 2
15 16 16 14 13 14 14 14 14 15 14 13 15 13 11 11 10 11 8 6 8 7 5 5 4 3 3 2 3 4 3 2 2 2 4 4 4 3 2 2 1 0 1 1 3 2 2 1 4 3 1 2 2 2 1 2 1 0 1 1 2 1 2 1 2 0 1 1 5 9 9 11 9 6 2 1 3 5 6 8 8 8 8 5 3 1 1 2
15 15 15 14 12 11 12 11 10 13 13 14 15 13 11 10 11 13 9 5 5 4 3 2 1 1 1 1 3 4 2 1 1 3 5 3 3 2 0 2 1 2 1 0 2 3 1 2 3 3 0 1 1 2 1 2 1 0 1 1 1 1 1 2 3 4 2 3 3 8 8 5 2 2 2 1 1 4 4 6 7 8 8 7 5 2 2 2
15 15 15 14 12 10 9 7 8 11 11 11 12 13 12 10 9 12 8 3 3 3 1 0 0 0 1 0 3 4 2 2 2 3 4 2 1 1 2 3 0 2 1 1 1 2 1 2 2 3 1 1 1 1 2 2 1 1 2 0 1 2 2 2 5 6 3 1 0 4 6 4 0 2 4 1 3 4 2 4 7 7 8 8 6 4 3 2
15 14 14 14 12 11 7 4 7 10 8 8 11 11 12 10 9 9 5 1 2 1 1 1 0 1 1 3 4 2 1 2 3 3 3 2 1 1 2 2 1 0 2 2 0 0 2 2 1 2 2 2 0 2 1 2 2 1 0 1 2 3 2 1 3 4 3 3 1 1 4 5 3 4 3 2 4 6 4 5 7 8 9 10 8 6 5 5
15 13 12 13 13 11 7 5 7 7 6 7 9 9 11 11 8 6 3 1 2 0 2 1 1 1 3 4 3 0 1 3 2 2 4 3 1 1 2 1 1 1 2 1 0 1 3 3 2 1 2 3 2 2 1 0 3 0 1 0 2 2 1 0 1 1 2 4 1 1 1 5 6 4 0 2 5 5 6 8 9 9 11 12 11 9 8 7
15 13 11 11 12 11 9 7 7 6 5 6 8 8 9 9 7 4 1 1 1 2 2 2 2 2 4 4 2 1 1 3 1 1 3 4 2 2 2 1 2 2 2 2 3 0 2 3 5 4 3 3 2 0 1 1 2 1 1 0 2 2 2 2 1 2 1 3 2 2 1 4 6 3 1 1 4 5 6 8 9 10 13 15 14 11 10 8
14 13 11 9 9 9 8 8 7 5 5 6 7 7 8 8 5 1 1 1 1 2 1 2 1 3 7 4 1 1 1 1 1 1 2 2 2 1 1 2 5 4 3 1 1 1 1 1 2 2 2 2 2 3 1 2 0 3 5 3 3 3 2 1 1 1 1 3 3 2 2 4 5 2 1 0 2 3 4 4 6 8 13 18 17 14 11 8
14 13 11 8 7 6 6 7 6 4 5 6 6 7 7 5 2 1 1 1 1 2 1 2 2 5 8 2 0 3 1 0 2 1 1 2 2 3 5 6 5 3 2 3 3 2 1 2 1 1 1 2 5 4 3 1 4 6 6 2 2 2 1 1 0 0 2 3 1 1 2 3 4 3 2 1 1 1 2 2 3 6 13 19 18 15 13 9
14 13 11 9 7 5 5 5 5 5 5 4 5 6 4 2 1 2 1 1 1 2 2 2 2 4 4 1 1 3 2 2 5 3 1 2 2 3 4 3 2 1 1 1 2 2 1 1 0 1 2 3 4 4 4 3 3 3 2 1 1 1 1 1 1 1 4 3 2 2 2 3 5 3 1 1 2 3 4 3 3 3 10 18 20 17 13 10
13 13 11 9 6 5 6 6 5 5 4 3 4 4 1 1 1 3 3 3 2 1 1 1 2 2 3 1 1 2 1 2 4 4 1 1 0 2 1 2 2 1 3 1 1 1 1 2 1 2 2 2 2 2 3 1 1 2 2 2 2 2 1 2 2 2 4 2 2 0 2 3 7 7 6 7 8 7 6 7 7 6 7 13 18 17 14 12
12 11 10 9 7 5 4 5 5 4 3 2 2 3 2 1 2 2 2 3 1 1 1 1 1 1 2 3 1 1 1 1 3 3 0 1 1 1 0 1 1 2 3 0 0 1 1 1 2 2 2 2 4 2 1 1 3 4 3 2 3 2 1 3 2 2 4 0 2 1 2 3 6 6 7 11 9 6 5 8 11 11 11 12 17 18 16 15
11 10 9 8 8 6 4 4 4 4 2 0 1 2 3 2 2 0 2 3 2 1 0 1 1 1 1 1 2 2 1 0 2 2 1 0 1 1 1 1 2 0 1 1 1 1 4 3 2 2 1 0 3 2 3 1 3 3 0 1 2 2 3 4 2 3 4 1 1 1 2 4 3 2 3 7 8 11 13 14 14 14 14 13 16 20 20 18
11 10 9 8 8 7 4 3 3 3 1 2 2 1 2 2 2 1 2 2 2 1 0 0 1 1 0 1 1 1 1 0 2 1 1 0 1 1 0 1 3 1 2 2 2 1 3 4 1 1 1 1 1 1 3 2 2 2 0 1 2 1 1 1 1 1 1 2 2 3 3 4 3 6 6 5 7 11 15 16 17 18 18 15 17 22 23 21
10 9 7 7 7 6 4 3 1 2 2 3 2 1 3 2 2 2 1 1 1 2 2 1 0 1 2 1 1 1 1 1 2 2 0 1 2 2 1 0 2 3 1 2 2 1 2 1 2 1 1 1 2 2 2 4 1 2 2 2 1 2 2 2 1 1 0 4 3 2 4 5 4 7 5 1 4 5 5 6 9 12 14 16 19 23 25 24
8 6 5 5 5 5 4 2 1 1 3 4 2 2 2 1 2 2 1 3 2 2 2 2 2 1 2 2 1 1 0 1 1 2 1 1 2 3 2 1 1 1 2 2 1 0 2 1 2 0 1 2 2 3 2 3 2 1 2 1 0 1 1 1 2 0 1 5 2 1 4 4 3 3 2 3 4 3 1 0 2 5 8 15 21 24 25 26
8 5 2 3 4 4 4 3 1 3 5 4 1 2 2 2 1 1 2 2 1 1 1 2 2 1 1 2 1 0 0 1 1 1 1 1 1 2 2 0 2 2 2 0 1 1 1 3 0 1 0 1 1 3 3 1 0 1 2 2 1 2 1 1 2 2 3 4 2 2 2 3 4 4 2 4 4 3 2 1 2 3 6 14 22 24 25 26
8 3 1 3 3 3 4 3 3 6 5 2 1 2 1 2 3 3 2 2 1 1 2 3 2 1 1 1 1 0 1 1 0 0 1 1 1 2 2 1 1 1 2 4 1 2 1 2 1 1 1 1 0 3 4 3 2 1 2 1 1 2 2 1 1 1 3 3 2 2 1 3 6 4 3 6 5 5 4 2 3 4 7 13 17 20 23 26
6 1 2 1 3 3 3 2 4 6 3 1 2 1 0 2 3 3 3 2 1 1 2 1 0 1 1 1 1 1 1 1 1 1 1 1 1 2 2 2 2 2 3 5 2 1 1 1 2 1 1 3 2 3 3 2 3 3 3 3 3 1 1 2 2 0 1 3 2 3 4 5 5 3 5 7 7 4 3 3 4 5 9 13 13 15 18 21
5 1 2 2 3 3 0 3 3 2 1 1 1 2 1 1 2 3 3 3 2 3 2 1 1 2 1 1 2 1 0 1 1 2 2 2 3 3 1 3 4 3 2 3 3 1 1 1 2 0 2 4 2 1 1 1 1 1 3 3 3 3 2 3 5 1 0 3 2 2 4 6 5 1 4 6 5 2 2 3 5 9 14 14 12 12 14 16
5 1 3 5 5 2 3 3 2 1 1 1 1 2 2 2 2 1 2 1 3 3 2 1 2 2 2 2 2 1 1 2 1 2 3 4 4 3 2 4 4 4 3 1 1 2 3 1 2 4 4 2 1 2 1 1 1 1 2 1 1 3 4 6 6 2 1 1 0 1 3 6 5 2 3 4 3 2 3 4 8 14 16 13 11 12 13 15
6 4 5 6 2 5 4 1 1 0 1 1 1 2 3 2 1 1 1 1 2 2 1 1 2 3 2 1 1 1 2 3 4 4 4 3 3 2 1 3 2 2 2 0 1 2 3 1 3 5 3 0 2 2 2 1 1 2 3 2 3 3 2 3 3 1 2 2 2 2 4 6 5 2 2 3 4 6 9 10 13 17 18 14 11 12 15 17
9 8 5 4 2 5 3 0 1 2 1 1 1 2 2 3 3 3 2 2 3 2 1 1 3 3 2 0 0 2 3 3 5 5 2 1 1 3 2 2 3 1 1 1 0 2 2 1 1 3 5 3 2 2 2 1 2 4 3 3 5 3 2 1 0 1 3 4 5 5 5 7 4 1 1 4 3 5 10 13 15 18 18 17 15 15 16 18
9 6 3 5 3 2 2 1 2 1 1 0 2 2 2 2 4 6 5 5 5 4 2 2 2 2 1 1 1 3 4 4 3 2 1 0 2 3 2 4 6 3 1 3 3 2 1 2 2 3 6 6 5 4 2 0 1 2 2 3 6 7 5 2 2 4 5 5 5 5 7 10 8 5 6 7 5 6 12 15 15 18 21 21 22 21 18 18
5 3 3 5 5 4 5 4 3 2 1 1 1 1 2 3 2 3 4 5 6 5 4 3 2 2 1 2 3 4 5 5 3 2 3 1 3 2 2 5 6 5 2 3 4 3 0 2 3 6 9 8 8 7 2 2 2 4 3 5 7 9 10 6 3 5 5 3 4 6 10 14 16 13 11 11 10 8 9 11 12 17 24 25 25 25 21 20
2 1 1 4 5 4 6 5 4 2 1 0 1 0 1 3 1 1 2 3 3 3 4 4 3 3 3 3 3 5 4 3 2 1 2 3 4 3 2 2 3 4 2 2 4 4 0 4 5 8 12 11 11 12 7 5 8 10 7 7 8 9 11 10 9 9 5 2 6 10 13 15 16 16 16 17 16 10 7 9 12 17 23 24 24 25 25 26
1 0 1 1 2 1 2 4 5 4 3 2 1 1 1 3 2 1 2 2 2 1 3 2 2 4 5 3 2 4 1 1 1 2 3 4 3 2 1 1 0 3 2 2 3 4 1 6 4 6 11 12 11 12 7 4 8 10 9 8 8 11 14 14 14 12 8 7 11 12 15 16 14 15 17 18 18 14 11 13 15 18 23 24 24 27 31 33
1 2 2 2 3 2 1 2 3 3 2 1 1 2 2 4 5 4 2 2 3 3 4 4 2 3 4 3 3 5 3 1 3 4 2 2 2 2 2 2 1 1 2 2 1 2 2 3 3 4 8 10 9 9 6 5 8 9 10 12 9 10 14 15 15 15 15 17 17 15 19 18 10 10 15 21 24 22 23 24 22 24 29 29 28 30 34 35
2 3 4 5 4 4 5 4 3 3 2 3 3 3 4 5 6 4 2 4 5 1 3 5 4 3 4 3 4 5 2 1 6 9 5 2 3 2 2 3 2 2 1 2 1 3 4 1 1 2 5 7 7 7 5 6 8 9 13 13 7 7 11 12 13 14 15 16 16 15 18 15 9 11 19 28 30 25 25 28 27 26 29 29 28 30 33 32
3 4 5 5 4 4 5 5 4 4 3 4 5 3 4 5 5 3 3 8 12 8 5 6 6 5 5 5 5 7 6 6 12 17 14 11 11 7 5 4 3 2 2 3 2 3 4 2 1 1 6 8 4 5 5 3 5 11 14 12 8 8 9 11 12 13 13 14 13 13 14 13 12 14 19 24 25 20 21 24 24 25 27 26 24 26 29 32
6 5 4 4 4 4 4 3 4 5 4 5 7 7 5 4 4 3 3 8 14 15 11 8 6 5 6 7 7 9 10 11 15 20 21 20 21 19 16 15 11 7 4 4 2 3 4 3 2 2 7 8 2 2 3 3 5 10 10 10 14 14 13 12 12 13 15 14 11 12 12 10 8 9 11 15 17 16 17 19 22 26 27 23 20 23 30 35
Wind_Direction
360 360 360 1 358 359 3 5 7 5 4 7 12 15 18 23 27 23 12 345 321 310 307 306 308 314 327 334 337 335 331 329 319 297 290 291 284 266 250 234 227 218 214 218 219 215 203 200 203 213 225 233 243 207 204 173 160 168 194 250 235 197 195 176 177 175 3 141 161 178 189 193 185 196 210 228 233 233 245 245 238 237 238 241 241 241 246 249
357 353 348 346 344 343 345 351 358 2 1 359 1 5 6 12 18 18 10 355 335 314 303 300 301 305 317 327 331 332 330 325 309 284 285 303 306 278 243 221 206 189 186 186 187 192 196 202 203 217 238 234 241 207 199 169 166 185 236 246 244 196 142 69 112 119 342 46 144 176 193 202 200 177 198 222 233 223 240 249 242 242 244 244 246 246 246 250
4 358 352 346 342 337 336 339 344 353 359 357 354 354 355 357 2 6 2 355 347 329 308 301 301 304 312 323 325 332 337 325 294 279 304 332 328 290 230 199 181 173 174 177 181 188 194 204 210 239 245 227 233 199 185 175 184 203 214 243 258 88 77 48 34 86 6 37 115 163 192 210 226 179 188 224 241 218 230 238 227 235 246 250 251 253 253 253
8 4 359 354 348 341 336 334 333 335 343 348 349 346 344 345 349 351 350 352 353 346 331 321 318 318 319 320 324 335 335 318 288 285 319 358 339 257 220 189 180 180 181 185 192 199 201 221 243 254 241 225 211 192 193 206 199 168 203 277 30 82 92 109 133 160 216 350 123 140 170 215 231 211 204 228 250 234 233 236 232 239 253 262 260 259 257 254
9 6 3 359 355 349 343 337 332 328 327 332 337 338 337 337 337 339 341 349 358 358 352 357 6 333 319 312 318 333 332 318 319 321 337 1 324 246 227 198 194 201 204 209 210 225 236 259 270 254 242 225 181 189 203 192 182 165 193 341 25 297 125 134 174 208 215 180 145 151 162 215 227 222 222 223 240 242 235 241 243 249 256 262 261 257 252 252
6 5 3 1 358 355 351 346 339 332 325 324 327 329 330 332 330 330 335 344 357 1 354 349 346 324 312 308 309 321 326 314 322 323 347 358 305 234 229 213 210 217 226 233 232 253 275 286 277 235 229 227 191 199 149 167 185 200 130 93 172 256 93 139 161 180 178 168 165 179 204 229 215 235 234 226 238 245 250 261 269 273 268 269 271 268 264 261
360 1 1 -0 359 356 353 350 347 340 331 323 322 325 325 327 329 328 332 338 350 358 354 338 336 333 318 302 298 306 301 291 309 320 349 359 298 212 218 217 219 227 236 240 251 269 285 291 268 217 206 277 200 173 94 161 192 243 148 163 181 150 122 114 139 160 158 186 203 212 230 223 209 247 244 235 248 254 260 269 276 278 277 276 274 272 271 269
354 354 355 357 357 356 354 352 349 345 338 328 319 320 321 321 326 329 332 335 340 351 354 336 332 352 347 323 295 299 292 289 312 324 343 3 24 194 207 216 223 235 242 248 264 274 286 287 256 217 212 279 197 158 83 138 183 231 178 166 174 141 127 111 130 170 179 203 220 222 234 230 228 249 257 260 266 269 270 271 272 275 278 277 275 275 274 272
348 348 349 350 352 352 353 352 349 347 343 335 323 314 315 317 319 326 332 335 335 343 352 340 319 334 351 352 323 302 286 306 326 334 350 4 10 191 197 214 228 240 247 255 265 273 281 278 253 232 229 189 163 140 123 206 208 188 146 152 162 147 148 141 149 187 204 209 213 220 243 242 239 255 262 267 270 271 273 273 275 280 284 285 284 280 275 272
345 344 344 344 346 347 349 350 349 347 344 340 331 316 308 310 314 319 328 334 333 338 347 344 324 315 333 342 333 321 0 347 347 348 354 6 24 157 186 208 226 238 248 258 263 272 269 267 268 238 227 168 147 115 161 209 168 137 129 127 124 125 148 182 186 196 211 200 202 239 272 251 217 243 261 257 252 267 281 278 281 288 290 291 286 279 273 270
351 347 343 341 341 342 344 346 346 346 344 340 335 325 310 303 309 315 322 330 332 335 343 343 330 316 326 333 319 320 0 348 1 356 348 8 26 36 159 215 231 240 248 254 255 265 258 269 272 208 208 179 153 97 125 136 122 130 126 118 115 138 116 134 196 5 313 191 286 278 276 256 177 218 251 255 264 276 283 277 282 290 295 293 285 278 273 270
358 354 349 344 341 340 339 340 342 343 342 339 336 332 320 302 301 311 319 326 329 332 339 341 332 320 328 330 305 292 334 346 357 353 353 19 24 19 355 301 265 262 253 244 235 245 249 267 239 188 183 171 159 104 130 126 125 140 141 134 155 194 127 34 305 343 351 268 350 314 271 236 174 224 252 260 265 273 279 279 289 296 297 289 278 275 271 271
359 358 357 353 347 342 339 338 337 339 340 337 334 333 327 308 296 305 318 323 326 330 334 336 329 319 322 324 310 313 332 338 335 341 5 26 20 10 352 320 311 297 245 225 216 226 253 271 232 199 173 156 151 132 139 121 134 157 207 250 187 199 173 25 351 322 325 13 3 336 280 279 191 218 239 262 269 280 288 288 296 300 296 279 270 273 271 273
355 357 358 356 354 348 343 339 335 335 336 334 331 331 330 317 297 301 316 323 325 327 327 328 325 322 324 318 311 311 299 313 317 345 13 17 3 8 18 116 116 62 119 172 193 213 244 203 192 189 168 145 139 137 137 121 161 172 247 219 30 259 172 49 10 339 331 35 5 337 265 286 258 227 251 273 267 274 293 295 299 298 286 271 268 278 284 286
349 353 355 356 355 353 350 343 335 334 333 330 329 328 329 322 302 299 310 319 323 323 321 319 314 315 314 302 302 298 267 285 298 317 345 335 331 16 67 146 142 109 103 120 136 124 120 137 135 125 119 126 139 147 167 172 160 23 264 191 104 286 179 76 35 15 24 345 344 315 264 284 293 298 279 256 236 266 299 297 296 291 278 270 269 286 294 294
345 346 350 352 353 353 354 349 341 337 335 328 327 328 327 323 310 301 304 313 316 317 317 313 307 306 303 297 299 295 280 276 271 249 243 294 308 146 118 142 148 134 118 116 112 96 103 130 114 109 118 132 153 215 235 202 191 85 285 260 132 262 322 37 95 36 358 297 319 294 275 289 297 318 221 199 244 293 300 292 288 285 272 263 273 291 295 294
347 345 345 347 349 351 353 353 348 344 341 331 327 331 326 322 315 305 304 310 314 316 312 305 300 294 284 286 293 290 287 281 276 256 240 275 299 202 160 147 163 161 138 122 115 112 104 128 122 112 118 137 200 249 223 240 236 166 275 273 233 237 312 322 147 34 353 305 300 244 253 270 268 272 253 245 276 292 287 278 282 281 266 264 285 293 292 294
348 348 346 344 344 346 351 354 351 349 350 339 331 334 327 320 313 306 305 312 321 318 307 303 307 292 264 295 306 299 294 284 272 257 250 273 288 229 203 174 174 172 166 169 142 123 75 122 146 131 190 186 183 218 229 271 224 191 242 223 327 221 232 290 269 12 3 339 277 260 250 268 269 271 270 267 279 279 264 269 277 273 263 270 288 287 285 290
343 346 348 347 343 342 349 353 352 352 352 351 353 343 325 320 316 302 298 320 326 313 285 284 287 281 287 307 309 306 303 287 267 263 259 262 276 235 206 188 180 179 216 240 162 65 27 91 183 230 218 201 235 257 271 329 39 136 166 162 309 271 257 281 340 26 1 312 274 256 256 276 281 279 276 275 277 266 260 270 271 261 256 269 283 284 282 279
337 341 345 348 345 341 346 351 353 353 353 1 5 351 335 345 338 272 313 321 322 276 271 279 275 277 285 296 302 307 310 289 260 258 252 258 271 230 203 194 185 195 284 263 223 31 359 247 215 233 236 136 85 337 310 354 39 102 118 130 162 280 289 305 64 38 349 304 272 243 268 278 278 276 274 272 264 255 256 258 255 245 246 266 278 281 280 264
332 335 339 346 346 342 344 350 354 358 358 359 0 10 43 30 19 325 324 321 309 291 286 279 273 274 278 288 298 306 311 290 258 251 254 272 265 214 209 197 184 211 42 353 274 20 317 246 231 58 63 92 104 97 331 27 36 93 134 195 175 241 277 76 75 47 16 332 279 278 294 280 274 277 283 272 238 244 246 234 234 234 243 266 269 279 281 250
328 330 335 341 345 344 344 348 355 0 357 354 8 40 54 40 28 352 330 299 292 296 286 275 271 272 277 283 293 311 313 285 268 254 259 272 246 225 228 200 187 230 63 73 243 238 245 236 104 85 95 103 101 68 350 73 54 86 131 285 275 259 279 292 87 113 13 317 295 337 314 288 285 291 300 277 231 245 244 225 227 237 246 257 257 269 268 216
327 328 331 335 344 346 344 347 353 359 1 7 25 41 39 26 16 1 342 293 293 296 283 277 263 261 278 287 308 328 325 283 278 283 293 279 236 238 244 190 154 204 137 204 223 235 256 186 98 115 162 125 108 62 58 120 123 263 137 264 284 19 304 271 76 291 237 247 297 312 296 281 295 295 281 186 241 261 258 241 235 243 250 241 230 213 138 164
331 331 330 332 342 346 344 345 347 360 12 19 25 32 26 15 7 360 344 289 286 293 291 282 230 226 223 300 330 335 341 347 312 310 325 314 209 216 0 95 118 201 193 190 215 224 279 50 101 137 149 347 126 107 150 206 215 235 222 243 243 131 192 269 341 306 244 154 293 307 292 272 317 293 227 106 313 273 264 263 250 246 244 228 216 198 157 154
332 335 334 332 337 347 346 340 350 6 17 19 20 24 15 2 356 356 348 284 278 284 278 99 179 106 140 297 338 343 336 356 349 325 331 346 172 175 82 82 149 229 174 88 212 236 76 89 160 151 115 26 137 180 200 223 269 224 212 218 74 131 143 279 318 316 288 166 48 338 315 288 23 259 253 31 324 276 265 277 261 248 236 221 213 208 212 219
326 335 340 337 336 346 347 336 359 10 18 17 15 14 2 349 346 354 3 317 284 256 125 54 24 76 37 330 342 348 316 355 2 354 6 46 94 155 140 89 29 49 132 117 80 297 93 110 168 150 147 136 179 256 188 194 260 254 180 84 112 121 107 330 332 326 306 318 32 24 296 285 294 274 264 2 313 279 267 261 255 247 232 220 213 217 229 238
320 328 340 344 341 348 357 351 356 4 18 17 7 4 355 347 346 353 6 295 271 146 86 34 26 355 343 346 1 36 289 342 359 28 42 36 17 199 195 132 77 109 128 154 213 113 112 134 173 150 152 164 204 235 92 266 260 256 79 137 129 109 71 94 350 298 301 323 306 125 290 276 283 283 320 345 295 273 256 244 241 238 230 223 216 218 223 226
318 321 335 348 348 352 357 350 346 350 3 4 355 354 347 341 341 342 350 250 288 71 71 28 37 23 359 348 353 57 334 349 355 34 29 20 38 154 222 243 151 105 80 224 250 311 103 175 189 164 163 196 199 116 42 283 279 72 128 165 98 73 73 123 261 262 335 315 252 139 42 268 262 261 108 314 279 273 259 239 230 226 224 221 216 215 218 218
324 322 330 345 349 352 350 341 338 339 346 349 345 341 341 340 333 343 72 247 342 60 65 6 26 1 351 336 310 8 338 0 14 327 2 28 48 110 171 129 126 110 74 34 286 34 42 272 218 191 204 196 113 69 353 259 63 125 149 115 88 89 71 96 274 247 154 275 241 126 9 275 266 269 156 165 257 261 263 247 230 222 221 219 215 213 214 213
332 329 330 337 345 349 344 339 336 333 342 347 336 329 341 347 328 113 106 250 337 29 4 5 355 331 339 336 13 9 6 293 349 349 118 105 69 89 114 115 115 116 91 59 61 78 23 4 356 298 327 96 111 87 30 26 101 130 153 145 118 126 86 127 250 328 216 245 215 58 344 284 280 283 208 215 272 243 245 273 253 229 227 222 214 210 209 210
339 337 336 336 341 346 342 338 330 325 323 326 329 326 336 0 55 139 188 261 8 2 4 19 345 337 0 32 344 3 24 345 350 356 111 91 82 104 122 136 124 129 206 146 95 100 136 164 112 50 83 103 121 100 53 49 106 139 181 226 242 221 147 177 165 165 234 244 104 59 321 272 255 251 193 290 283 251 243 270 280 239 231 225 215 209 206 211
345 345 345 338 335 337 334 331 331 328 312 305 335 342 340 258 240 197 250 324 349 338 42 34 323 0 9 323 276 354 357 342 6 21 41 21 1 158 169 214 186 235 264 224 161 186 173 156 79 70 139 209 220 136 101 113 210 227 203 194 260 281 268 242 213 184 244 256 94 1 303 262 248 253 271 271 262 249 235 249 272 277 258 233 218 212 210 213
351 352 353 340 329 322 322 325 329 329 321 310 335 14 69 196 234 197 269 315 330 339 43 202 264 356 313 299 297 347 321 279 4 6 53 14 294 235 301 330 163 250 271 233 278 271 232 126 123 159 178 240 248 212 176 192 179 193 194 194 230 239 261 249 223 264 275 285 103 268 289 267 264 265 253 251 264 290 268 252 263 267 264 246 223 215 214 214
353 357 355 344 333 323 317 319 329 338 339 34 66 49 89 199 243 169 269 273 281 329 1 208 311 248 233 340 347 313 265 220 16 345 288 350 265 242 243 218 204 208 143 206 266 239 255 261 161 162 97 116 239 271 327 324 156 176 287 344 229 213 251 253 244 264 278 336 132 194 251 246 259 331 243 240 273 292 278 265 264 261 255 244 225 218 218 216
353 358 352 344 339 336 327 302 323 357 38 129 99 98 167 214 253 215 253 271 276 289 266 144 341 325 1 24 351 335 214 233 31 349 292 297 238 251 312 201 217 206 132 199 224 132 254 272 63 38 353 0 281 335 331 302 151 145 29 309 252 264 251 251 317 297 312 316 230 195 250 244 260 298 279 259 276 276 267 261 261 261 255 244 231 223 221 219
353 357 345 334 341 349 338 292 286 29 107 130 111 192 208 237 239 196 251 330 344 346 339 312 301 336 328 314 9 41 136 193 352 335 275 234 245 233 309 346 206 221 207 207 206 150 259 271 66 347 184 91 343 346 319 298 303 155 189 186 263 345 61 131 180 83 104 270 244 182 256 267 292 289 274 281 289 271 257 252 255 260 254 243 235 228 223 222
355 359 341 336 353 7 5 324 234 99 116 128 133 206 216 240 209 188 324 336 328 351 353 320 319 329 285 277 316 357 197 211 332 347 355 291 253 181 207 294 169 240 315 300 247 244 269 266 75 34 144 92 338 299 281 300 319 217 206 124 25 300 34 173 246 139 199 250 247 190 260 286 305 290 310 331 300 286 310 318 280 270 247 238 236 231 227 225
357 6 359 11 16 21 30 28 101 127 117 117 152 239 197 201 217 221 324 335 322 8 357 274 274 323 245 257 272 238 283 303 354 6 314 285 246 163 176 116 83 42 14 290 271 338 289 272 2 81 308 69 6 272 237 180 39 303 308 338 320 239 204 171 226 229 226 245 254 237 268 273 240 236 279 276 269 282 299 346 300 264 230 235 239 239 236 231
0 21 350 13 22 31 37 36 115 134 124 123 217 231 186 243 274 265 261 293 286 272 284 262 262 343 202 226 283 274 283 293 36 42 261 263 244 186 165 122 83 71 123 138 193 322 338 281 266 138 262 312 104 226 217 156 143 221 281 295 335 288 278 236 208 261 247 244 260 269 263 242 230 211 217 243 256 271 270 280 280 252 241 247 251 255 253 242
8 18 246 346 36 38 35 80 132 138 130 134 202 199 130 269 287 284 262 271 267 255 286 281 265 287 250 230 271 268 313 284 169 167 226 246 269 220 150 131 147 164 170 145 134 321 74 262 269 133 240 256 202 195 217 182 163 187 217 204 188 217 302 288 262 340 274 250 247 254 243 244 245 190 193 240 263 264 250 267 270 267 274 275 275 275 272 259
11 340 261 305 349 356 86 143 121 118 124 114 205 205 188 253 317 331 289 261 241 249 274 278 242 258 261 272 267 209 179 274 213 220 237 205 233 254 180 166 162 153 170 145 141 196 171 239 277 286 232 242 202 109 5 351 38 208 221 217 212 196 178 258 246 174 345 261 246 257 254 251 253 180 188 233 254 253 220 250 264 274 281 287 295 294 288 275
14 330 289 311 311 259 159 130 55 48 149 163 197 201 219 259 282 316 318 275 238 240 243 240 224 217 220 241 258 210 211 246 194 213 247 214 215 240 161 160 162 149 153 148 162 164 137 131 262 259 255 258 53 64 72 309 337 263 258 288 278 212 206 243 249 206 183 219 328 293 271 263 252 197 196 234 252 276 252 242 259 274 282 289 302 307 304 294
358 323 317 332 307 174 158 119 48 149 223 236 226 220 238 246 176 128 355 273 240 235 237 246 216 219 239 245 250 233 227 229 200 200 234 224 220 305 76 155 170 149 144 348 311 150 132 138 251 267 277 146 107 109 132 237 250 241 242 205 216 236 239 257 268 286 214 188 185 236 249 268 266 191 204 262 275 276 269 262 260 268 278 284 295 308 307 304
344 320 325 13 89 160 169 216 187 203 266 298 337 304 262 244 220 222 227 215 211 182 169 247 211 211 245 29 148 222 218 223 221 217 227 226 268 354 8 177 197 237 129 124 137 149 171 194 205 272 288 272 223 180 176 214 215 237 243 190 211 229 58 53 220 254 247 212 210 240 258 267 270 134 226 260 258 265 268 267 262 262 270 279 288 297 296 296
348 320 323 12 32 141 154 125 126 140 171 303 335 312 266 252 237 234 230 228 229 211 205 262 221 182 198 141 190 233 226 226 247 271 10 346 287 325 297 213 206 218 193 141 142 143 224 224 171 221 258 259 254 256 263 6 154 215 229 206 216 206 179 186 228 231 235 210 199 230 257 263 262 253 254 257 254 260 265 265 263 264 272 282 288 290 287 285
3 321 324 356 11 71 97 90 92 111 141 186 298 287 232 237 254 255 234 229 234 228 232 250 214 167 172 187 222 245 228 212 225 313 9 329 283 285 222 215 213 212 190 132 142 138 293 268 222 226 238 239 250 258 234 130 226 239 214 202 205 201 198 205 231 226 223 222 218 226 247 262 269 272 271 271 267 262 263 261 255 261 272 280 285 287 286 282
40 317 355 357 359 53 77 66 64 74 78 240 254 39 176 223 277 348 224 222 246 243 245 243 198 202 217 197 228 246 226 202 218 279 305 253 260 265 220 212 233 228 212 131 145 140 275 267 226 225 239 240 249 255 232 197 243 254 244 218 200 196 197 197 214 219 199 224 244 233 237 250 262 270 274 276 276 271 261 259 259 264 272 278 283 286 286 288
118 297 77 35 330 6 93 54 46 35 26 31 247 239 192 220 235 257 231 253 279 219 216 224 178 221 237 218 243 266 254 68 249 233 235 236 257 297 328 61 244 218 194 150 153 142 224 265 219 210 246 248 251 263 257 230 255 260 254 238 206 192 193 198 217 220 199 224 244 243 248 248 246 256 264 269 273 276 275 274 275 276 277 279 283 287 289 290
3 305 297 307 294 267 268 346 358 328 320 119 224 229 204 228 238 239 252 290 278 227 211 233 219 222 238 217 234 270 297 353 284 261 250 260 268 288 294 268 214 160 149 158 195 167 187 256 216 201 255 258 252 263 257 238 260 270 259 249 227 202 201 203 219 223 219 236 246 251 260 259 243 242 259 265 270 279 285 284 278 273 277 282 285 286 289 289
358 338 329 323 298 272 271 273 285 298 260 195 223 222 204 225 233 225 202 226 252 251 180 222 239 241 256 239 215 248 301 3 286 285 293 307 281 263 271 257 178 115 206 195 189 194 196 235 106 161 265 265 244 248 242 227 245 259 258 253 231 209 217 221 230 231 229 241 247 249 260 265 254 249 262 269 274 280 281 277 272 270 276 282 283 284 286 286
274 303 319 317 298 268 256 249 236 254 245 210 214 203 192 215 214 207 234 237 244 252 236 242 262 264 269 272 253 268 284 269 271 280 283 281 276 271 272 258 193 150 220 213 177 171 191 236 70 132 266 269 231 233 256 264 255 256 259 254 220 203 218 222 222 220 220 233 244 248 255 259 255 255 262 269 272 269 266 269 274 277 278 276 273 278 282 284
267 282 287 287 286 255 246 247 217 227 240 209 209 219 228 226 192 181 251 248 238 243 253 266 284 283 277 280 279 287 295 288 288 292 291 285 279 274 270 261 246 233 204 172 189 179 171 225 235 191 261 274 274 246 284 329 287 262 250 226 209 209 221 226 227 225 220 225 239 243 241 245 256 262 266 267 263 258 260 269 275 279 280 274 268 274 282 287